| time (UTC) | temp F | wind direction | speed MPH | gust MPH | rain 1hr in | rain 24hr in | rain mn in | humidity % | barometer mb |
| 20260510160040 | 63 | 341 | 0.0 | 0.0 | 0.00 | 0.00 | 0.00 | 33 | 1015.7 |
| 20260510154533 | 62 | 334 | 1.0 | 0.0 | 0.00 | 0.00 | 0.00 | 34 | 1015.7 |
| 20260510153037 | 60 | 5 | 1.0 | 0.0 | 0.00 | 0.00 | 0.00 | 35 | 1015.8 |
| 20260510151527 | 58 | 335 | 1.0 | 0.0 | 0.00 | 0.00 | 0.00 | 37 | 1015.8 |
| 20260510150019 | 56 | 36 | 1.0 | 0.0 | 0.00 | 0.00 | 0.00 | 39 | 1015.7 |
| 20260510144513 | 55 | 74 | 0.0 | 0.0 | 0.00 | 0.00 | 0.00 | 41 | 1015.7 |
| 20260510143012 | 54 | 74 | 0.0 | 0.0 | 0.00 | 0.00 | 0.00 | 41 | 1015.7 |
| 20260510141507 | 54 | 74 | 0.0 | 0.0 | 0.00 | 0.00 | 0.00 | 39 | 1015.5 |
| 20260510140006 | 53 | 74 | 0.0 | 0.0 | 0.00 | 0.00 | 0.00 | 44 | 1015.4 |
| 20260510134502 | 53 | 74 | 1.0 | 0.0 | 0.00 | 0.00 | 0.00 | 41 | 1015.4 |
| 20260510133102 | 52 | 72 | 0.0 | 0.0 | 0.00 | 0.00 | 0.00 | 42 | 1015.2 |
| 20260510131556 | 51 | 76 | 1.0 | 0.0 | 0.00 | 0.00 | 0.00 | 42 | 1015.1 |
| 20260510130053 | 50 | 71 | 1.0 | 0.0 | 0.00 | 0.00 | 0.00 | 43 | 1015.0 |
| 20260510124551 | 49 | 70 | 0.0 | 0.0 | 0.00 | 0.00 | 0.00 | 45 | 1015.0 |
| 20260510123051 | 48 | 70 | 0.0 | 0.0 | 0.00 | 0.00 | 0.00 | 44 | 1014.5 |
| 20260510121547 | 46 | 70 | 0.0 | 0.0 | 0.00 | 0.00 | 0.00 | 34 | 1014.3 |
| 20260510120044 | 44 | 70 | 0.0 | 0.0 | 0.00 | 0.00 | 0.00 | 26 | 1014.2 |
| 20260510114546 | 42 | 70 | 0.0 | 0.0 | 0.00 | 0.00 | 0.00 | 21 | 1014.0 |
| 20260510113042 | 41 | 70 | 0.0 | 0.0 | 0.00 | 0.00 | 0.00 | 26 | 1013.7 |
| 20260510111538 | 40 | 70 | 0.0 | 0.0 | 0.00 | 0.00 | 0.00 | 33 | 1013.6 |
| 20260510110046 | 41 | 70 | 0.0 | 0.0 | 0.00 | 0.00 | 0.00 | 34 | 1013.2 |
| 20260510104533 | 41 | 70 | 0.0 | 0.0 | 0.00 | 0.00 | 0.00 | 36 | 1013.0 |
| 20260510103030 | 42 | 70 | 0.0 | 0.0 | 0.00 | 0.00 | 0.00 | 40 | 1012.9 |
| 20260510101528 | 42 | 70 | 0.0 | 0.0 | 0.00 | 0.00 | 0.00 | 42 | 1012.7 |
| 20260510100029 | 43 | 70 | 0.0 | 0.0 | 0.00 | 0.00 | 0.00 | 44 | 1012.3 |
| 20260510094534 | 43 | 70 | 0.0 | 0.0 | 0.00 | 0.00 | 0.00 | 46 | 1012.3 |
| 20260510093021 | 44 | 70 | 0.0 | 0.0 | 0.00 | 0.00 | 0.00 | 48 | 1012.1 |
| 20260510091518 | 45 | 70 | 0.0 | 0.0 | 0.00 | 0.00 | 0.00 | 49 | 1012.2 |
| 20260510090016 | 46 | 70 | 0.0 | 0.0 | 0.00 | 0.00 | 0.00 | 49 | 1012.1 |
| 20260510084515 | 47 | 70 | 0.0 | 0.0 | 0.00 | 0.00 | 0.00 | 49 | 1012.1 |
| 20260510083013 | 47 | 70 | 0.0 | 0.0 | 0.00 | 0.00 | 0.00 | 48 | 1011.9 |
| 20260510081512 | 47 | 70 | 0.0 | 0.0 | 0.00 | 0.00 | 0.00 | 48 | 1011.7 |
| 20260510080030 | 48 | 70 | 0.0 | 0.0 | 0.00 | 0.00 | 0.00 | 48 | 1011.4 |
| 20260510074508 | 48 | 68 | 1.0 | 0.0 | 0.00 | 0.00 | 0.00 | 47 | 1011.1 |
| 20260510073007 | 48 | 63 | 1.0 | 0.0 | 0.00 | 0.00 | 0.00 | 46 | 1011.1 |
| 20260510071504 | 47 | 69 | 0.0 | 0.0 | 0.00 | 0.00 | 0.00 | 40 | 1010.8 |
| 20260510070003 | 46 | 69 | 0.0 | 0.0 | 0.00 | 0.00 | 0.00 | 27 | 1010.5 |
| 20260510064601 | 45 | 69 | 0.0 | 0.0 | 0.00 | 0.00 | 0.00 | 26 | 1010.3 |
| 20260510063057 | 46 | 69 | 0.0 | 0.0 | 0.00 | 0.00 | 0.00 | 31 | 1009.9 |
| 20260510061553 | 46 | 69 | 0.0 | 0.0 | 0.00 | 0.00 | 0.00 | 40 | 1009.7 |
| 20260510060051 | 47 | 69 | 0.0 | 0.0 | 0.00 | 0.00 | 0.00 | 44 | 1009.5 |
| 20260510054549 | 48 | 69 | 0.0 | 0.0 | 0.00 | 0.00 | 0.00 | 48 | 1009.3 |
| 20260510053052 | 48 | 69 | 0.0 | 0.0 | 0.00 | 0.00 | 0.00 | 48 | 1009.2 |
| 20260510051546 | 49 | 69 | 0.0 | 0.0 | 0.00 | 0.00 | 0.00 | 50 | 1008.9 |
| 20260510050039 | 49 | 69 | 0.0 | 0.0 | 0.00 | 0.00 | 0.00 | 52 | 1008.5 |
| 20260510044535 | 50 | 69 | 0.0 | 0.0 | 0.00 | 0.00 | 0.00 | 53 | 1008.4 |
| 20260510043031 | 51 | 69 | 0.0 | 0.0 | 0.00 | 0.00 | 0.00 | 54 | 1008.1 |
| 20260510041527 | 51 | 69 | 0.0 | 0.0 | 0.00 | 0.00 | 0.00 | 54 | 1007.9 |
| 20260510040022 | 52 | 69 | 0.0 | 0.0 | 0.00 | 0.00 | 0.00 | 54 | 1007.6 |
| 20260510034517 | 52 | 69 | 0.0 | 0.0 | 0.00 | 0.00 | 0.00 | 53 | 1007.6 |
| 20260510033013 | 53 | 69 | 0.0 | 0.0 | 0.00 | 0.00 | 0.00 | 53 | 1007.6 |
| 20260510031511 | 54 | 69 | 0.0 | 0.0 | 0.00 | 0.00 | 0.00 | 52 | 1007.4 |
| 20260510030005 | 55 | 69 | 0.0 | 0.0 | 0.00 | 0.00 | 0.00 | 50 | 1007.2 |
| 20260510024602 | 55 | 69 | 0.0 | 0.0 | 0.00 | 0.00 | 0.00 | 50 | 1006.9 |
| 20260510023056 | 56 | 69 | 0.0 | 0.0 | 0.00 | 0.00 | 0.00 | 49 | 1006.6 |
| 20260510021641 | 56 | 69 | 1.0 | 0.0 | 0.00 | 0.00 | 0.00 | 48 | 1006.1 |
| 20260510020049 | 57 | 73 | 1.0 | 0.0 | 0.00 | 0.00 | 0.00 | 47 | 1005.8 |
| 20260510014553 | 58 | 77 | 1.0 | 0.0 | 0.00 | 0.00 | 0.00 | 45 | 1005.5 |
| 20260510013038 | 60 | 77 | 2.0 | 0.0 | 0.00 | 0.00 | 0.00 | 43 | 1005.1 |
| 20260510011534 | 64 | 65 | 1.0 | 0.0 | 0.00 | 0.00 | 0.00 | 38 | 1004.7 |
| 20260510010039 | 67 | 355 | 1.0 | 0.0 | 0.00 | 0.00 | 0.00 | 34 | 1004.0 |
| 20260510004524 | 68 | 11 | 1.0 | 0.0 | 0.00 | 0.00 | 0.00 | 34 | 1003.6 |
| 20260510003023 | 69 | 20 | 2.0 | 0.0 | 0.00 | 0.00 | 0.00 | 34 | 1003.4 |
| 20260510001516 | 69 | 355 | 0.0 | 0.0 | 0.00 | 0.00 | 0.00 | 33 | 1003.0 |
| 20260510000012 | 70 | 14 | 1.0 | 0.0 | 0.00 | 0.00 | 0.00 | 33 | 1002.7 |
| 20260509234509 | 71 | 329 | 1.0 | 0.0 | 0.00 | 0.00 | 0.00 | 33 | 1002.5 |
| 20260509233003 | 71 | 317 | 2.0 | 0.0 | 0.00 | 0.00 | 0.00 | 32 | 1002.3 |
| 20260509231604 | 71 | 360 | 2.0 | 0.0 | 0.00 | 0.00 | 0.00 | 33 | 1002.2 |
| 20260509230058 | 72 | 355 | 1.0 | 0.0 | 0.00 | 0.00 | 0.00 | 32 | 1001.8 |
| 20260509224549 | 72 | 325 | 1.0 | 0.0 | 0.00 | 0.00 | 0.00 | 32 | 1001.7 |
| 20260509223047 | 72 | 329 | 3.0 | 0.0 | 0.00 | 0.00 | 0.00 | 30 | 1001.5 |
| 20260509221541 | 73 | 351 | 3.0 | 0.0 | 0.00 | 0.00 | 0.00 | 28 | 1001.3 |
| 20260509220036 | 73 | 321 | 4.0 | 0.0 | 0.00 | 0.00 | 0.00 | 28 | 1001.1 |
| 20260509214532 | 74 | 315 | 2.0 | 0.0 | 0.00 | 0.00 | 0.00 | 29 | 1000.8 |
| 20260509213031 | 74 | 13 | 3.0 | 0.0 | 0.00 | 0.00 | 0.00 | 28 | 1000.6 |
| 20260509211523 | 75 | 355 | 3.0 | 0.0 | 0.00 | 0.00 | 0.00 | 27 | 1000.6 |
| 20260509210019 | 75 | 329 | 4.0 | 0.0 | 0.00 | 0.00 | 0.00 | 27 | 1000.5 |
| 20260509204514 | 75 | 315 | 3.0 | 0.0 | 0.00 | 0.00 | 0.00 | 28 | 1000.2 |
| 20260509203013 | 76 | 322 | 3.0 | 0.0 | 0.00 | 0.00 | 0.00 | 27 | 1000.4 |
| 20260509201511 | 75 | 311 | 3.0 | 0.0 | 0.00 | 0.00 | 0.00 | 29 | 1000.4 |
| 20260509200002 | 74 | 329 | 2.0 | 0.0 | 0.00 | 0.00 | 0.00 | 30 | 1000.5 |
| 20260509194601 | 74 | 325 | 3.0 | 0.0 | 0.00 | 0.00 | 0.00 | 29 | 1000.6 |
| 20260509193055 | 73 | 339 | 3.0 | 0.0 | 0.00 | 0.00 | 0.00 | 31 | 1000.6 |
| 20260509191602 | 73 | 304 | 3.0 | 0.0 | 0.00 | 0.00 | 0.00 | 30 | 1000.6 |
| 20260509190047 | 74 | 250 | 2.0 | 0.0 | 0.00 | 0.00 | 0.00 | 29 | 1000.4 |
| 20260509184539 | 74 | 313 | 2.0 | 0.0 | 0.00 | 0.00 | 0.00 | 28 | 1000.4 |
| 20260509183036 | 73 | 338 | 2.0 | 0.0 | 0.00 | 0.00 | 0.00 | 31 | 1000.4 |
| 20260509181531 | 72 | 5 | 2.0 | 0.0 | 0.00 | 0.00 | 0.00 | 31 | 1000.5 |
| 20260509180027 | 72 | 20 | 2.0 | 0.0 | 0.00 | 0.00 | 0.00 | 31 | 1000.5 |
| 20260509174522 | 72 | 281 | 2.0 | 0.0 | 0.00 | 0.00 | 0.00 | 31 | 1000.7 |
| 20260509173026 | 72 | 17 | 2.0 | 0.0 | 0.00 | 0.00 | 0.00 | 34 | 1000.8 |
| 20260509171513 | 72 | 17 | 3.0 | 0.0 | 0.00 | 0.00 | 0.00 | 34 | 1000.7 |
| 20260509170012 | 71 | 344 | 1.0 | 0.0 | 0.00 | 0.00 | 0.00 | 40 | 1000.7 |
| 20260509164506 | 70 | 319 | 1.0 | 0.0 | 0.00 | 0.00 | 0.00 | 41 | 1000.9 |
| 20260509163105 | 69 | 302 | 1.0 | 0.0 | 0.00 | 0.00 | 0.00 | 40 | 1000.9 |
| 20260509161603 | 69 | 331 | 1.0 | 0.0 | 0.00 | 0.00 | 0.00 | 38 | 1001.0 |